Other Surface Observations
Issued by NWS

Home | Current Version | Previous Version | Text Only | Print | Product List | Glossary On
Versions: 1 2 3 4 5 6 7 8 9 10 11 12 13 14 15 16 17 18 19 20 21 22 23 24 25 26 27 28 29 30 31 32 33 34 35 36 37 38 39 40 41 42 43 44 45 46 47 48 49 50
000
SXUS52 KTAE 290218
OSOTAE
OSOTAE
North Florida/South Alabama/Southwest Georgia Weather Roundup
National Weather Service Tallahassee Florida
900 PM EST SUN DEC 28 2014

Note: "fair" indicates few or no clouds below 12,000 feet with no
significant weather and/or obstructions to visibility.

!FLZ017-115-028-034-025-290300
...North Florida...

CITY           SKY/WX    TMP DP  RH WIND       PRES   REMARKS
TALLAHASSEE    CLOUDY    69  65  86 S7        30.08S
APALACHICOLA   CLOUDY    69  66  90 SE7       30.07F FOG
PERRY          FOG       60  60  99 CALM      30.11S VSB 1/4
CROSS CITY       N/A     60  58  92 CALM      30.11S
JACKSONVILLE   MOCLDY    62  62 100 CALM      30.10S
$$

!FLZ112-006-005-002-011-290300
...Florida Panhandle...

CITY           SKY/WX    TMP DP  RH WIND       PRES   REMARKS
MARIANNA       CLOUDY    69  68  96 S7        30.04F
BONIFAY        NOT AVBL
PANAMA CITY NW MOCLDY    68  66  94 SE7       30.04S
TYNDALL AFB    PTCLDY    68  68 100 SE9       30.06F
TYND DRONE APT FAIR      68  68  99 SE8       30.04F
DE FUNIAK SPR  CLOUDY    66  66  99 S3        30.04S
EGLIN AFB      FOG       64  64  97 SE2       30.02F VSB 1/4
DESTIN         FOG       66  65  96 CALM      30.02S VSB 1/4
HURLBURT       FOG       64  61  88 CALM      30.01F VSB 1/4
CRESTVIEW      CLEAR     65  65 100 CALM      30.03F
PENSACOLA      PTCLDY    64  62  93 CALM      30.03R
$$

!ALZ063-066-290300
...South Alabama...

CITY           SKY/WX    TMP DP  RH WIND       PRES   REMARKS
DOTHAN         CLOUDY    66  66 100 S10       30.07S
OZARK CAIRNS   CLOUDY    68  63  84 S6        30.03S
FT RUCKER HELI CLOUDY    67  66  97 SW3       30.02S
RUCKER HELI 3  MOCLDY    68  66  94 SW7       30.05S
RUCKER HELI 2  CLOUDY    67  66  97 S6        30.01R
FLORALA APT    PTCLDY    67  65  93 SE3       30.03F FOG
ANDALUSIA      MOCLDY    72  66  83 CALM      30.03S HAZE
TROY           CLOUDY    64  62  93 NE3       30.04S FOG
EUFALA         RAIN      64  63  94 CALM      30.04R FOG
MOBILE         CLOUDY    65  63  93 NW5       30.05R
$$

!GAZ120>161-290300
...Southwest and South Central Georgia...

CITY           SKY/WX    TMP DP  RH WIND       PRES   REMARKS
THOMASVILLE    CLOUDY    66  66 100 SW10      30.09R
BAINBRIDGE     MOCLDY    70  66  88 S3        30.07R
MOODY AFB      CLEAR     60  58  93 S6        30.08S
VALDOSTA       CLEAR     61  60  97 S6        30.09S
MOULTRIE       CLEAR     64  64 100 S5        30.08S
BLAKELY        CLOUDY    70  68  94 SW3       30.05S
ALBANY         CLOUDY    67  64  90 S6        30.07R
TIFTON         FAIR      66  62  85 S8        30.06F
FITZGERALD     FAIR      64  61  91 S5        30.08F
CORDELE        FAIR      64  62  95 CALM      30.06S FOG
AMERICUS       CLOUDY    64  64 100 CALM      30.06S FOG
HOMERVILLE     FAIR      68  63  83 SW6       30.09S
$$

!GMZ750-755-770-775-290300
...Coastal and Buoy Obs...

STATION/POSITION TIME  TEMP    WIND        PRES    VSBY  WAVE
                       AIR SEA DIR/SP/G                  HT/PER
                 (UTC) (F)     (DEG/KT/KT) (MB)    (MI)  (FT/S)
KEATON BEACH     0200   65     150/  7/  8 1019.5F
CEDAR KEY        0200   65     220/  2/  3 1020.5R
C TOWER          0200   69     180/ 16/ 16 1018.2F
APALACHICOLA BUO 0200   73 72  180/ 10/ 10 1019.2R         2/ 4
PANAMA CITY BUOY 0147   74 74  190/ 12/ 14 1018.2F         2/ 6
MOBILE BUOY      0200   73 74  160/  6/  8 1016.6R         3/ 7
ORANGE BCH AL BU 0200   69 67  190/  4/  4 1016.3R         2/ 5
$$



USA.gov is the U.S. government's official web portal to all federal, state and local government web resources and services.